Weather History for New Bedford, MA

Change the Weather History Date:

Monday, January 14, 2013

  Actual Average Record
Temperature  
Mean Temperature 54 °F -  
Max Temperature 61 °F 36 °F 61 °F (2013)
Min Temperature 41 °F 20 °F -4 °F (1988)
Degree Days  
Heating Degree Days 12    
Growing Degree Days 4 (Base 50)    
Moisture  
Dew Point 47 °F    
Average Humidity 82    
Maximum Humidity 100    
Minimum Humidity 44    
Precipitation  
Precipitation 0.03 in - - ()
Sea Level Pressure  
Sea Level Pressure 30.03 in    
Wind  
Wind Speed 10 mph (WSW)    
Max Wind Speed 15 mph    
Max Gust Speed 24 mph    
Visibility 7 miles    
Events Fog , Rain    
Averages and records for this station are not official NWS values.
T = Trace of Precipitation, MM = Missing Value Source: NWS Daily Summary

Daily Weather History Graph

Daily Weather History Graph

Search for Another Location

Airport:

Trip Planner

Search our weather history database for the weather conditions in past years. The results will help you decide how hot, cold, wet, or windy it might be!

Date:

Astronomy

Jan. 14, 2013 Rise Set
Actual Time 7:08 AM EST 4:37 PM EST
Civil Twilight 6:38 AM EST 5:08 PM EST
Nautical Twilight 6:03 AM EST 5:42 PM EST
Astronomical Twilight 5:30 AM EST 6:15 PM EST
Moon 8:37 AM EST (1/14) 8:23 PM EST (1/14)
Length of Visible Light 10h 30m
Length of Day
9h 28m
Waxing Crescent, 11% of the Moon is Illuminated
Jan 14
Waxing Crescent
Jan 18
First Quarter
Jan 26
Full
Feb 3
Last Quarter
Feb 10
New

Hourly Weather History & Observations

Time (EST) Temp. Windchill Dew Point Humidity Pressure Visibility Wind Dir Wind Speed Gust Speed Precip Events Conditions
12:53 AM 53.1 °F - 52.0 °F 96% 30.01 in 10.0 mi SW 10.4 mph - N/A   Overcast
1:44 AM 53.6 °F - 51.8 °F 94% 30.00 in 10.0 mi SW 12.7 mph - N/A   Overcast
1:53 AM 54.0 °F - 52.0 °F 93% 30.01 in 8.0 mi SW 12.7 mph - N/A   Overcast
2:06 AM 53.6 °F - 51.8 °F 94% 30.01 in 1.8 mi SSW 11.5 mph - N/A   Overcast
2:53 AM 53.1 °F - 52.0 °F 96% 30.01 in 1.0 mi SW 10.4 mph - N/A   Overcast
3:20 AM 53.6 °F - 51.8 °F 94% 30.00 in 2.0 mi SSW 10.4 mph - N/A   Overcast
3:38 AM 53.6 °F - 51.8 °F 94% 29.99 in 4.0 mi SW 13.8 mph 24.2 mph N/A   Overcast
3:53 AM 54.0 °F - 52.0 °F 93% 29.98 in 8.0 mi SW 15.0 mph 23.0 mph N/A   Overcast
4:53 AM 52.0 °F - 50.0 °F 93% 29.97 in 10.0 mi SW 9.2 mph 16.1 mph N/A   Overcast
5:36 AM 51.8 °F - 50.0 °F 94% 29.99 in 10.0 mi WSW 6.9 mph - N/A   Overcast
5:53 AM 52.0 °F - 50.0 °F 93% 30.00 in 10.0 mi SW 5.8 mph - N/A   Overcast
6:53 AM 51.8 °F - 51.8 °F 100% 29.98 in 10.0 mi SSW 9.2 mph - N/A   Overcast
7:15 AM 51.8 °F - 51.8 °F 100% 29.98 in 2.0 mi SSW 9.2 mph - N/A   Overcast
7:22 AM 51.8 °F - 51.8 °F 100% 29.98 in 1.5 mi SSW 10.4 mph - N/A   Overcast
7:53 AM 51.1 °F - 50.0 °F 96% 29.96 in 0.2 mi South 12.7 mph - N/A Fog Fog
8:25 AM 51.8 °F - 51.8 °F 100% 29.95 in 0.5 mi South 12.7 mph - N/A Fog Fog
8:49 AM 53.6 °F - 51.8 °F 94% 29.96 in 2.0 mi SW 10.4 mph - N/A   Overcast
8:53 AM 53.1 °F - 51.1 °F 93% 29.95 in 2.0 mi SSW 11.5 mph - N/A   Overcast
9:53 AM 53.1 °F - 52.0 °F 96% 30.00 in 3.0 mi SW 9.2 mph - N/A   Overcast
10:53 AM 54.0 °F - 52.0 °F 93% 30.01 in 5.0 mi West 4.6 mph - N/A   Overcast
11:53 AM 55.9 °F - 53.1 °F 90% 30.00 in 8.0 mi WNW 8.1 mph - N/A   Overcast
12:08 PM 55.4 °F - 53.6 °F 94% 30.00 in 10.0 mi WNW 6.9 mph - N/A   Overcast
12:49 PM 57.2 °F - 53.6 °F 88% 29.99 in 10.0 mi WNW 5.8 mph - N/A   Scattered Clouds
12:53 PM 57.9 °F - 52.0 °F 81% 29.99 in 10.0 mi WNW 3.5 mph - N/A   Partly Cloudy
1:53 PM 61.0 °F - 52.0 °F 72% 30.01 in 10.0 mi WNW 9.2 mph - N/A   Clear
2:53 PM 59.0 °F - 48.9 °F 69% 30.04 in 10.0 mi WNW 6.9 mph - N/A   Clear
3:53 PM 59.0 °F - 39.9 °F 49% 30.07 in 10.0 mi WNW 10.4 mph 19.6 mph N/A   Mostly Cloudy
4:53 PM 54.0 °F - 34.0 °F 47% 30.09 in 10.0 mi WNW 8.1 mph - N/A   Clear
5:53 PM 52.0 °F - 34.0 °F 50% 30.10 in 10.0 mi NW 3.5 mph - N/A   Scattered Clouds
6:53 PM 51.1 °F - 30.0 °F 44% 30.11 in 10.0 mi NW 3.5 mph - N/A   Scattered Clouds
7:53 PM 50.0 °F - 30.0 °F 46% 30.14 in 10.0 mi Variable 4.6 mph - N/A   Overcast
8:53 PM 48.0 °F - 30.9 °F 52% 30.18 in 10.0 mi NW 6.9 mph - N/A   Overcast
9:53 PM 46.9 °F - 30.0 °F 52% 30.17 in 10.0 mi Variable 5.8 mph - N/A   Overcast
10:53 PM 46.0 °F 41.4 °F 30.0 °F 54% 30.23 in 10.0 mi NNW 9.2 mph 19.6 mph N/A   Overcast
11:53 PM 41.0 °F - 36.0 °F 82% 30.24 in 9.0 mi Calm Calm - 0.03 in Rain Light Rain